Location: Favalello
(42.2939°N, 9.2706°E)
Time: 07:15:27
(UTC+00:00)

Cosmos 1263 - Pass Details

Date: 06 December 2019
Orbit: 386 x 1340 km, 82.9° (Epoch: 26 January)

Event Time Altitude Azimuth Distance (km) Brightness Sun altitude
Rises 17:18:15 0° 176° (S) 2,536 8.4 -15.7°
Reaches altitude 10° 17:20:29 10° 170° (S) 1,566 7.2 -16.1°
Maximum altitude 17:23:41 48° 95° (E) 545 4.4 -16.7°
Enters shadow 17:23:54 47° 79° (E) 551 4.4 -16.7°
